Regional Weather Roundup
Issued by NWS Green Bay, WI

Home | Current Version | Previous Version | Text Only | Print | Product List | Glossary On
Versions: 1 2 3 4 5 6 7 8 9 10 11 12 13 14 15 16 17 18 19 20 21 22 23 24 25 26 27 28 29 30 31 32 33 34 35 36 37 38 39 40 41 42 43 44 45 46 47 48 49 50
000
ASUS43 KGRB 211511
RWRGRB

NORTH-CENTRAL AND NORTHEAST WISCONSIN REGIONAL WEATHER ROUNDUP
NATIONAL WEATHER SERVICE GREEN BAY WI
1000 AM CDT SAT APR 21 2018

WIZ005-009-010>012-018-019-211600-
NORTH CENTRAL WISCONSIN

CITY           SKY/WX    TMP DP  RH WIND       PRES   REMARKS
IRONWOOD       FAIR      49  19  30 CALM      30.41F
MANITOWISH WTR FAIR      47  19  32 CALM      30.41F
ARBOR VITAE    FAIR      52  18  26 CALM      30.41S
EAGLE RIVER    FAIR      49  16  27 CALM      30.40F
LAND O LAKES   FAIR      52  16  23 CALM      30.41F
RHINELANDER    FAIR      51  16  24 CALM      30.41F
PHILLIPS       FAIR      47  21  35 CALM      30.41F
ANTIGO         FAIR      44  22  42 CALM      30.43S
TOMAHAWK       FAIR      49  17  28 CALM      30.42F
MERRILL          N/A     44  22  43 CALM      30.44S
$$

WIZ013-073-211600-
NORTHEAST WISCONSIN

CITY           SKY/WX    TMP DP  RH WIND       PRES   REMARKS
IRON MOUNTAIN  FAIR      52  19  27 CALM      30.39F
MARINETTE      FAIR      53  19  26 W5        30.43F
OCONTO         FAIR      47  21  35 W3        30.44S
$$

WIZ017-030-035>037-045-211600-
CENTRAL WISCONSIN

CITY           SKY/WX    TMP DP  RH WIND       PRES   REMARKS
MEDFORD        FAIR      43  21  42 S6        30.42S
WAUSAU         FAIR      44  22  41 CALM      30.42S
MOSINEE        PTSUNNY   45  23  42 CALM      30.44S
MARSHFIELD     FAIR      45  21  38 SE3       30.42S
WISC RAPIDS    FAIR      45  19  35 SW5       30.44F
STEVENS POINT  FAIR      45  19  34 CALM      30.44S
WAUPACA        FAIR      45  24  43 CALM      30.46R
SHAWANO        FAIR      49  20  32 W3        30.44S
CLINTONVILLE   FAIR      43  20  40 CALM      30.44F
WAUTOMA        FAIR      43  23  45 CALM      30.46R
$$

WIZ038-039-048-051-211600-
FOX VALLEY

CITY           SKY/WX    TMP DP  RH WIND       PRES   REMARKS
NWS GREEN BAY  FAIR      42  25  50 SW5       30.45F
APPLETON       PTSUNNY   45  19  36 CALM      30.44S
OSHKOSH        FAIR      40  27  59 S5        30.45S
FOND DU LAC    FAIR      43  17  35 S5        30.46S
$$

WIZ022-050-052-211600-
EAST CENTRAL WISCONSIN

CITY           SKY/WX    TMP DP  RH WIND       PRES   REMARKS
EPHRAIM        FAIR      47  18  31 CALM      30.42S
WASHINGTON ISL FAIR      42  22  44 SW6       30.43S
STURGEON BAY   FAIR      49  22  34 W6        30.44F
MANITOWOC      FAIR      47  18  31 W5        30.47S
SHEBOYGAN      FAIR      47  26  44 S5        30.46S
$$

LMZ563-521-522-541>543-211600-
LAKESHORE

STATION/POSITION TIME  TEMP    WIND        PRES    VSBY  WAVE
                       AIR SEA DIR/SP/G                  HT/PER
                 (UTC) (F)     (DEG/KT/KT) (MB)    (MI)  (FT/S)
SHEBOYGAN LKSHOR 1500   43     190/  4/  4 1031.9F
KEWAUNEE LKSHORE 1442   39     170/  9/ 10 1030.2F
NORTHPORT PIER   1440   37                 1030.5S
SISTER BAY LKSHO 1457   50     330/  3/  4   N/A
MENOMINEE LKSHOR 1442   44     170/  6/  8 1029.8F
$$




USA.gov is the U.S. government's official web portal to all federal, state and local government web resources and services.